Hourly Data Report for October 03, 2017

All times are specified in Local Standard Time (LST). Add 1 hour to adjust for Daylight Saving Time where and when it is observed.

RAE LAKES
NORTHWEST TERRITORIES

64°06'42.078" N
117°19'40.086" W
223.20 m
2203359
71165
WYH

Download Data

Hourly Data (October 2017)
Hourly Data Report for October 3, 2017
Temp Definition
°C
Dew Point Temp Definition
°C
Rel Hum Definition
%
Wind Dir Definition
10's deg

Wind Spd Definition
km/h
Visibility Definition
km
Stn Press Definition
kPa
Hmdx Definition


Wind Chill Definition


Weather Definition


TIME
00:00 2.4 -0.6 81 11 14   98.89     LegendNANA
01:00 2.4 -0.4 82 9 16   98.78     LegendNANA
02:00 2.4 -0.3 82 8 14   98.69     LegendNANA
03:00 2.5 -0.2 83 9 13   98.63     LegendNANA
04:00 2.6 0.0 83 9 11   98.54     LegendNANA
05:00 2.7 0.1 83 8 12   98.47     LegendNANA
06:00 2.8 0.3 84 5 6   98.51     LegendNANA
07:00 2.3 1.0 91 6 8   98.41     LegendNANA
08:00 2.1 1.1 93 4 8   98.41     LegendNANA
09:00 1.9 1.0 94 4 9   98.44     LegendNANA
10:00 1.6 0.8 94 1 12   98.51     LegendNANA
11:00 1.8 1.2 96 35 14   98.57     LegendNANA
12:00 2.4 1.2 92 36 19   98.66     LegendNANA
13:00 2.9 1.5 90 1 18   98.70     LegendNANA
14:00 3.3 1.5 88 35 21   98.86     LegendNANA
15:00 2.5 0.8 88 1 16   98.99     LegendNANA
16:00 2.6 0.2 84 1 15   99.07     LegendNANA
17:00 2.2 0.1 86 36 12   99.17     LegendNANA
18:00 2.3 -0.3 83 33 8   99.26     LegendNANA
19:00 1.8 0.2 89 33 11   99.33     LegendNANA
20:00 1.4 0.3 93 36 10   99.38     LegendNANA
21:00 1.2 -0.6 88 4 3   99.37     LegendNANA
22:00 0.8 -1.3 86 6 7   99.40     LegendNANA
23:00 0.6 -0.9 89 7 5   99.42     LegendNANA

Notes on Data Quality.

Legend

  • E = Estimated
  • M = Missing
  • NA = Not Available
  • ‡ = Partner data that is not subject to review by the National Climate Archives
Date modified: